www.pogodaiklimat.ru

Погода и климат >> Архив погоды >> Буркина-Фасо >> Fada N`Gourma


ПОГОДА в Fada N`Gourma

  • Прогноз погоды в Fada N`Gourma
  • Монитор погоды в Fada N`Gourma
  • Климат города

АРХИВ ПОГОДЫ в Fada N`Gourma

Время (UTC), дата Ветер
(напр.,м/с)
 
Видим.   Явления Облачность Т
(С)
Тd
(С)
f
(%)
Тe
(С)
Тes
(С)
Комфортность P
(гПа)
Po
(гПа)
Тmin
(С)
Tmax
(С)
R
(мм)
R24
(мм)
S
(см)
12 11.12 СВ 3 10 км 9/0
[Ci sp]
+29.7 +0.4 15 +27 +37 жарко 1012.3 977.5
15 11.12 С 1 10 км 9/0
[Ci sp]
+31.4 +3.9 18 +29 +36 жарко 1009.4 974.7
18 11.12 С 1 10 км 9/0
[Ci sp]
+27.1 +8.9 32 +27 +27 жарко 1010.5 975.4 +32.3
21 11.12 С 1 10 км 9/0
[Ci sp]
+24.4 +5.2 29 +24 +24 комфорт 1012.2 977.3
00 12.12 С 2 10 км 9/0
[Ci sp]
+22.1 +4.6 32 +22 +22 комфорт 1011.0 976.3
03 12.12 С 2 10 км 9/0
[Ci sp]
+21.3 +2.9 30 +21 +21 комфорт 1009.8 975.3
06 12.12 С 2 10 км 9/0
[Ac trans Ci sp]
+20.4 +3.6 33 +21 +21 комфорт 1011.0 976.1 +20.4
09 12.12 СВ 3 10 км 9/0
[Ac trans Ci sp]
+25.1 +2.7 23 +24 +27 комфорт 1013.6 978.8
12 12.12 В 3 10 км 9/0
[Ac As Ci sp]
+29.3 +2.9 18 +27 +32 жарко 1011.8 977.1
15 12.12 В 2 10 км 9/0
[Ac As]
+30.3 +5.0 20 +28 +31 жарко 1010.1 975.4
18 12.12 С 1 10 км 9/0
[Ac cast]
+28.0 +10.8 34 +29 +29 жарко 1010.9 976.1 +31.1
21 12.12 СВ 1 10 км 9/0
[Ac trans Ci sp]
+25.0 +10.6 40 +26 +26 жарко 1012.7 977.9
00 13.12 СВ 2 10 км 9/0
[Ac trans Ci sp]
+24.0 +8.4 37 +25 +25 комфорт 1011.7 977.1
03 13.12 СВ 1 10 км 9/0
[Ac trans Ci sp]
+22.7 +9.2 42 +24 +24 комфорт 1010.7 976.1
06 13.12 СВ 2 10 км 9/0
[Ac trans Ci sp]
+21.2 +9.3 47 +23 +23 комфорт 1011.9 977.1 +21.2
09 13.12 СВ 2 10 км 9/0
[Ac As]
+23.0 +8.1 38 +24 +27 комфорт 1013.8 978.8
12 13.12 В 3 10 км 9/0
[Ac trans Ci sp]
+30.4 +11.3 31 +31 +39 жарко 1011.3 976.8
15 13.12 В 2 10 км 9/0
[Ac trans Ci sp]
+33.5 +10.8 25 +33 +38 жарко 1009.0 974.7
18 13.12 СВ 1 10 км 9/0
[Ac trans Ci sp]
+30.4 +14.7 38 +32 +32 жарко 1009.1 974.5 +34.0
21 13.12 С 1 10 км 9/0
[Ac trans Ci sp]
+26.6 +14.3 47 +29 +29 жарко 1011.7 976.9
00 14.12 СВ 1 10 км 9/0
[Ac trans Ci sp]
+25.0 +13.3 48 +27 +27 жарко 1011.9 977.4
03 14.12 С 1 10 км 9/0
[Ci sp]
+23.0 +12.8 53 +26 +26 жарко 1010.3 975.9
06 14.12 СВ 2 10 км 9/0
[Ci sp]
+21.9 +12.4 55 +24 +24 комфорт 1011.3 976.6 +21.9
09 14.12 СВ 4 10 км 9/0
[Ci sp]
+27.8 +11.4 36 +29 +32 жарко 1012.6 978.1
12 14.12 СВ 3 10 км 9/0
[Ci sp]
+33.9 +10.2 23 +33 +43 жарко 1010.7 976.4
15 14.12 СВ 3 10 км 9/0
[Ci sp]
+36.0 +7.2 17 +34 +38 очень
жарко
1008.5 974.3
18 14.12 СВ 1 10 км 9/0
[Ci sp]
+31.1 +11.7 30 +31 +31 жарко 1009.7 975.1 +36.4
21 14.12 С 1 10 км 9/0
[Ci sp]
+27.3 +11.2 37 +28 +28 жарко 1011.4 976.9
00 15.12 СВ 2 10 км 9/0
[Ci sp]
+25.3 +8.1 33 +25 +25 комфорт 1011.1 976.8
03 15.12 СВ 1 10 км 9/0
[Ci sp]
+22.4 +9.8 45 +24 +24 комфорт 1010.1 975.9
06 15.12 С 1 10 км 9/0
[Ci sp]
+21.6 +7.1 39 +22 +22 комфорт 1010.9 976.3 +21.6
09 15.12 СВ 3 10 км 9/0
[Ci sp]
+28.0 +6.2 25 +27 +32 жарко 1012.1 977.6
12 15.12 СВ 3 10 км 9/0
[Ci sp]
+34.0 +5.7 17 +32 +42 жарко 1010.7 976.5
15 15.12 С 2 10 км 9/0
[Ci sp]
+35.4 +7.9 19 +34 +39 очень
жарко
1008.2 973.9
18 15.12 штиль 0 10 км 9/0
[Ac trans Ci sp]
+31.5 +13.2 33 +33 +33 жарко 1009.3 974.8 +36.1
21 15.12 С 2 10 км 9/0
[Ci sp]
+27.0 +10.5 36 +28 +28 жарко 1011.2 976.7
00 16.12 С 1 10 км 9/0
[Ci sp]
+24.5 +10.4 41 +26 +26 жарко 1010.5 976.2
03 16.12 С 1 10 км 9/0
[Ci sp]
+22.4 +10.0 45 +24 +24 комфорт 1008.9 974.7
06 16.12 С 1 10 км 9/0
[Ci sp]
+21.5 +8.3 43 +23 +23 комфорт 1010.3 975.7 +21.2
09 16.12 В 3 10 км 9/0
[Ci sp]
+27.4 +6.1 26 +27 +31 жарко 1012.0 977.9
12 16.12 СВ 3 10 км 9/0
[Ci sp]
+33.5 +4.9 17 +31 +41 жарко 1010.4 976.1
15 16.12 СВ 3 10 км 9/0
[Ci sp]
+35.8 +7.1 17 +34 +38 очень
жарко
1007.8 973.6
18 16.12 С 2 10 км 9/0
[Ci sp]
+32.0 +10.1 26 +32 +32 жарко 1009.1 974.6 +36.5
21 16.12 С 2 10 км 9/0
[Ci sp]
+27.0 +9.2 33 +27 +27 жарко 1011.0 976.5
00 17.12 С 2 10 км 9/0
[Ci sp]
+24.5 +7.9 35 +25 +25 комфорт 1010.5 976.2
03 17.12 С 2 10 км 9/0
[Ci sp]
+22.6 +6.8 36 +23 +23 комфорт 1009.1 974.9
06 17.12 СВ 2 10 км 9/0
[Ci sp]
+18.3 +8.9 54 +19 +19 1010.4 975.7 +18.3
09 17.12 СВ 3 10 км 9/0
[Ci sp]
+28.4 +2.4 19 +26 +31 жарко 1012.2 977.7
12 17.12 СВ 3 10 км 9/0
[Ci sp]
+34.2 +0.9 12 +31 +41 жарко 1010.7 976.4
15 17.12 СВ 2 10 км 9/0
[Ci sp]
+35.4 +0.6 11 +32 +37 жарко 1007.7 973.5
18 17.12 СВ 1 10 км 9/0
[Ci sp]
+30.6 +8.8 26 +30 +30 жарко 1009.1 974.4 +36.4
21 17.12 СВ 1 10 км 9/0
[Ci sp]
+25.0 +6.5 31 +25 +25 комфорт 1011.1 976.6
00 18.12 С 1 10 км 9/0
[Ci sp]
+20.4 +7.4 43 +23 +23 комфорт 1011.0 976.5
03 18.12 СВ 1 10 км 9/0
[Ci sp]
+18.6 +7.7 49 +20 +20 1009.7 975.2
06 18.12 СВ 1 10 км 9/0
[Ci sp]
+16.7 +7.1 53 +18 +18 1010.3 975.4 +16.7

 

Местоположение метеостанции Fada N`Gourma (Буркина-Фасо): широта 12.03 долгота 0.37 высота над уровнем моря 309 м.

В архиве по умолчанию представлена погода в Fada N`Gourma за последнюю неделю. Архивные данные за месяц целиком и за предыдущие месяцы, начиная с января 2011 года, Вы можете получить, выбрав интересующий диапазон дат из раскрывающегося списка и нажав кнопку "Ввод!".

Внимание! Время в таблицах - всемирное. Для получения местного времени необходимо прибавить поправку, которая в Fada N`Gourma равна 0 ч.

Смотрите также архив погоды в соседних городах и на ближайших метеорологических станциях:

Погода в Dapaon (Того) (129 км)
Погода в Mango (Того) (185 км)
Погода в Po (Буркина-Фасо) (192 км)
Погода в Navrongo (Гана) (204 км)
Погода в Ouagadougou (Буркина-Фасо) (209 км)
Погода в Natitingou (Бенин) (220 км)
Погода в Dori (Буркина-Фасо) (227 км)
Погода в Niamey (Нигер) (253 км)
Погода в Niamtougou (Того) (264 км)
Погода в Tillabery (Нигер) (268 км)

Пояснения к столбцам:

Ветер - указаны скорость ветра в м/с - средняя за 10 мин, порывы в срок и между сроками (в фигурных скобках) и направление, откуда дует ветер: С - северный, СВ - северо-восточный, В - восточный, ЮВ - юго-восточный, Ю - южный, ЮЗ - юго-западный, З - западный, СЗ - северо-западный.
Видимость - горизонтальная дальность видимости в метрах или километрах. При видимости от 1 до 10 км при отсутствии осадков обычно наблюдается дымка, при ухудшении видимости до 1 км и менее - туман. В сухую погоду видимость может ухудшаться дымом, пылью или мглою.
Явления - указаны атмосферные явления, наблюдавшиеся в срок или в последний час перед сроком; фигурными скобками обозначены явления, наблюдавшиеся между сроками (за 1-3 часа до срока); квадратными скобками обозначены град или гололедные отложения с указанием их диаметра в мм.
Облачность - указаны через наклонную черту общая и нижняя облачность в баллах и высота нижней границы облаков в метрах; квадратными скобками обозначены формы облаков: Ci - перистые, Cs - перисто-слоистые, Cc - перисто-кучевые, Ac - высококучевые, As - высокослоистые, Sc - слоисто-кучевые, Ns - слоисто-дождевые, Cu - кучевые, Cb - кучево-дождевые. Подробнее классификацию облаков см. в Атласе облаков (PDF).
T - Температура воздуха - температура, измеренная на высоте 2 м над землей.
Td - Температура точки росы - температура, при понижении до которой содержащийся в воздухе водяной пар достигнет насыщения.
f - Относительная влажность воздуха - влажноcть воздуха, измеренная на высоте 2 м над землей.
Te - Эффективная температура - температура, которую ощущает одетый по сезону человек в тени. Характеристика душности погоды. При расчете учитывается влияние влажности воздуха и скорости ветра на теплоощущения человека.
Tes - Эффективная температура на солнце - температура, которую ощущает человек, с поправкой на солнечный нагрев. Характеристика знойности погоды. Зависит от высоты солнца над горизонтом, облачности и скорости ветра. Ночью, в пасмурную погоду, а также при ветре 12 м/с и более поправка равна нулю.
P - Атмосферное давление - приведенное к уровню моря атмосферное давление.
Po - Атмосферное давление - измеренное на уровне метеостанции атмосферное давление.
Tmin - Минимальная температура - минимум температуры воздуха на высоте 2 м над землей.
Tmax - Максимальная температура - максимум температуры воздуха на высоте 2 м над землей.
R - Количество осадков - Количество выпавших осадков за период времени, мм. При наведении курсора мыши на число - период времени, за который выпало указанное количество осадков.
R24 - Количество осадков - Количество выпавших осадков за 24 часа, мм.
S - Снежный покров - Высота снежного покрова, см. При наведении курсора мыши на число - состояние снежного покрова и степень покрытия местности в баллах.